Weather in La Asunci贸n

Venezuela     11掳01鈥41鈥砃   63掳51鈥30鈥砏
temp.,
掳C
wind,
m/s
gust,
m/s
humid.,
%
clouds,
%
prec.,
mm/h
press.,
hPa
HPBL,
m
17 april, sat
sat1723:00+26e1113838 0.0 1013428
02:00+25e8118595 0.0 1012697
05:00+25e8128399 0.0 1013794
08:00+25ese71182100 0.0 1014616
11:00+26e61080100 0.0 1015309
14:00+26ene11138017 0.0 1012356
17:00+26ene121582100 0.0 1011394
20:00+26ene10148341 0.0 1013448
18 april, sun
sun1823:00+26e10138326 0.0 1015535
02:00+26e1012855 0.0 1013628
05:00+25e811855 0.1 1013698
08:00+25ese711845 0.3 1015719
11:00+26e8118313 0.0 1016594
14:00+26ene101379100 0.0 1013427
17:00+26ene111478100 0.0 1012432
20:00+26e101382100 0.0 1014571
19 april, mon
mon1923:00+26e91282100 0.0 1016569
02:00+25e91283100 0.2 1014739
05:00+25e8118599 0.1 1014784
08:00+26e8128383 0.2 1016809
11:00+26e91281100 0.2 1017728
14:00+26ene111580100 0.2 1014544
17:00+26ene10148371 0.0 1013587
20:00+26ene10138256 0.0 1015615
20 april, tue
tue2023:00+26ene9128439 0.2 1016678
02:00+25e81183100 0.3 1014789
05:00+25e811836 0.3 1014804
08:00+25e811825 1.6 1016883
11:00+25e8118146 0.4 1017794
14:00+26ene912825 0.4 1014624
17:00+26ene9128325 0.0 1013587
20:00+26ene9128333 0.0 1014595
21 april, wed
wed2123:00+25e912841 0.1 1015713
02:00+25e911830 0.1 1013766
05:00+25e810830 0.1 1014819
08:00+25e69830 0.1 1015667
11:00+25e69830 0.0 1015592
14:00+26ne810830 0.0 1013533
17:00+26ne912830 0.0 1011506
20:00+26ene912820 0.0 1013531